Regional Weather Roundup
Issued by NWS Upton, NY

Current Version | Previous Version | Text Only | Print | Product List | Glossary On
Versions: 1 2 3 4 5 6 7 8 9 10 11 12 13 14 15 16 17 18 19 20 21 22 23 24 25 26 27
000
ASUS41 KOKX 030308
RWROKX

REGIONAL WEATHER ROUNDUP
NATIONAL WEATHER SERVICE NEW YORK NY
1000 PM EST FRI DEC 02 2016

NOTE: "FAIR" INDICATES FEW OR NO CLOUDS BELOW 12,000 FEET WITH NO
SIGNIFICANT WEATHER AND/OR OBSTRUCTIONS TO VISIBILITY.

NYZ071-072-176-178-NJZ106-104-030400-
NEW YORK CITY METRO AREA

CITY           SKY/WX    TMP DP  RH WIND       PRES   REMARKS
Central Park   MOCLDY    45  28  51 VRB6G16   29.93R
Wall St Helipt PTCLDY    45  32  60 W15G22    29.92S
Bronx Bot Gard NOT AVBL
LaGuardia APRT MOCLDY    47  29  49 W16       29.90R
Kennedy INTL   PTCLDY    46  28  49 W23G32    29.92R
Breezy Point     N/A     43 N/A N/A W16G23      N/A
Newark/Liberty MOCLDY    45  28  51 W16       29.92R
Teterboro      CLOUDY    45  28  51 W9G18     29.90R
$$

NYZ177-179-078>081-030400-
LONG ISLAND NEW YORK

CITY           SKY/WX    TMP DP  RH WIND       PRES   REMARKS
Jones Beach      N/A     45 N/A N/A W18G25      N/A
Matinecock PT    N/A     46 N/A N/A W24G30      N/A
Farmingdale    PTCLDY    45  28  51 NW12G21   29.89R
MacArthur/ISP  MOCLDY    45  28  51 W25G33    29.87R
Shirley        MOCLDY    45  29  53 W14G23    29.87R
Westhampton    CLEAR     45  26  47 W17G30    29.87S
Southampton    NOT AVBL
Bridgehampton  NOT AVBL
East Hampton     N/A     44  31  60 W9        29.83S
Montauk          N/A     46  33  60 W18G28    29.83S
$$

NYZ052-065-067-030400-
HUDSON VALLEY

CITY           SKY/WX    TMP DP  RH WIND       PRES   REMARKS
White Plains   MOCLDY    42  27  55 W13G24    29.86S
Newburgh       PTCLDY    39  34  81 W14       29.88R WCI  31
Montgomery     CLOUDY    41  29  62 W8        29.87R
Poughkeepsie   CLOUDY    41  29  62 W14G22    29.86R
Albany         LGT RAIN  39  31  72 W18G26    29.83R WCI  30
$$

NJZ001-105-106-008-010-013-015-019>022-104-030400-
NEW JERSEY

CITY           SKY/WX    TMP DP  RH WIND       PRES   REMARKS
Newark/Liberty MOCLDY    45  28  51 W16       29.92R
Teterboro      CLOUDY    45  28  51 W9G18     29.90R
Caldwell       CLOUDY    44  29  55 W8        29.92R
Somerville     CLOUDY    43  28  55 MISG      29.93R
Linden         MOCLDY   N/A N/A N/A W12       29.93R
Sussex         CLOUDY    43  27  53 W10G22    29.90R
Andover          N/A     41  29  62 VRB7      29.91R
Trenton        CLOUDY    44  28  53 W12       29.96R
Millville      MOCLDY    43  30  60 W14       30.02S
Atlantic City  MOCLDY    43  27  53 W12       30.00S
Wrightstown    PTCLDY    42  28  57 W8        29.95R
Toms River     CLEAR     40  29  64 W8        29.97S WCI  34
Belmar         CLEAR    N/A N/A N/A W13       29.95S
$$

PAZ047>061-062-071-030400-
EASTERN PENNSYLVANIA

CITY           SKY/WX    TMP DP  RH WIND       PRES   REMARKS
Philadelphia   CLOUDY    44  29  55 W16       30.02R
Allentown      CLOUDY    42  29  59 W12       29.96R
Scranton       CLOUDY    40  30  67 W10       29.92R WCI  33
$$

CTZ002-004>006-009-010-012-RIZ004-006-007-MAZ004-011-015-030400-
SOUTHERN NEW ENGLAND
 IN CT

CITY           SKY/WX    TMP DP  RH WIND       PRES   REMARKS
Bradley INTL   PTCLDY    40  29  64 W13       29.80S WCI  32
Hartford       CLEAR     41  30  65 W7        29.82S
Danbury        MOCLDY    40  28  62 W12G21    29.86R WCI  33
Wtrbury/Oxford CLEAR     39  27  60 W8        29.83S WCI  34
Bridgeport     CLOUDY    45  30  55 W10       29.85S
Meriden        CLEAR     43  28  55 W10       29.83S
New Haven      PTCLDY    44  31  60 W9G18     29.84S
Chester          N/A     41  28  60 W8G17     29.81S
Groton         CLEAR     45  32  60 W8        29.81S
Wilimantic     CLEAR     42  31  64 W8        29.80S

 IN RI

CITY           SKY/WX    TMP DP  RH WIND       PRES   REMARKS
Providence     CLEAR     42  29  59 W9        29.78S
Block Island   CLEAR     45  32  60 W16G24    29.81S
Westerly       CLEAR     43  29  57 W5        29.82R
 IN MA

CITY           SKY/WX    TMP DP  RH WIND       PRES   REMARKS
Boston         CLEAR     43  30  60 SW12G21   29.73S
Worcester      CLEAR     36  27  69 W9        29.73R WCI  29
Westfield      CLOUDY    40  31  70 SW9       29.78F WCI  34
Provincetown   CLEAR     44  32  62 W17G26    29.73F
Nantucket      CLEAR     45  32  60 W10       29.76S
$$

ANZ330-335-338-340-345-350-353-355-030400-
COASTAL MARINE OBSERVATIONS


STATION/POSITION TIME  SKY/WX   TEMP    WIND        PRES    VSBY  WAVE
                                AIR SEA DIR/SP/G                  HT/PER
                 (UTC)          (F)     (DEG/KT/KT) (MB)    (MI)  (FT/S)
NY HARB ENTRANCE 0150            47 54  270/ 21/ 29 1012.3          4/ 4
20 S FIRE ISLAND 0150            48 54  290/ 25/ 33 1011.6          6/ 6
GREAT SOUTH BAY  0215            46 45                N/A
23 SSW MONTAUK P 0250            48 56  270/ 17/ 21 1010.5          6/ 6
15 E BARNEGAT LI 0230               54                N/A           5/ 4
HUDSON CANYON    0150            51 59              1011.9          8/ 6
KINGS POINT      0242            46 49              1012.1
EXECUTION ROCKS  0245            46     280/ 16/ 25   N/A
CENTRAL LI SOUND NOT AVBL
EASTERN LI SOUND NOT AVBL
ROBBINS REEF     0242            45     270/ 17/ 20 1013.0
$$


>>>>>>>>>>>>>>>>>>>>>>>>>>>> KEY <<<<<<<<<<<<<<<<<<<<<<<<<<<
>                                                          <
>     SKY/WX - Sky Condition/Present Weather               <
>     TMP    - Temperature in Fahrenheit                   <
>     DP     - Dew Point in Fahrenheit                     <
>     RH     - Relative Humidity in Percent                <
>     WIND   - Direction (from) and Speed in MPH           <
>     PRES   - Mean Sea Level Pressure (inches of Hg)      <
>     WCI    - Wind Chill Index                            <
>     VSB    - VISIBILITY IN MILES                         <
>     HX     - HEAT INDEX                                  <
>     TC     - TEMPERATURE IN CELSIUS                      <
>     VRB    - VARIABLE WIND DIRECTION                     <
>                                                          <
>>>>>>>>>>>>>>>>>>>>>>>>>>>> KEY <<<<<<<<<<<<<<<<<<<<<<<<<<<




USA.gov is the U.S. government's official web portal to all federal, state and local government web resources and services.